Regional Weather Roundup
Issued by NWS Pendleton, OR

Home | Current Version | Previous Version | Text Only | Print | Product List | Glossary On
Versions: 1 2 3 4 5 6 7 8 9 10 11 12 13 14 15 16 17 18 19 20 21 22 23 24 25 26 27 28 29 30 31 32 33 34 35 36 37 38 39 40 41 42 43 44 45 46 47 48 49 50
000
ASUS46 KPDT 172325
RWRPDT
PENDLETON REGIONAL WEATHER ROUNDUP
NATIONAL WEATHER SERVICE PENDLETON OREGON
300 PM PST WED DEC 17 2014

NOTE: FAIR INDICATES FEW OR NO CLOUDS BELOW 12,000 FEET WITH NO
SIGNIFICANT WEATHER AND/OR OBSTRUCTIONS TO VISIBILITY.

# INDICATES UNOFFICIAL STATION AND DATA

WAZ520-180010-
EAST SLOPES OF WASHINGTON CASCADES

CITY            SKY/WX      TMP DP  RH  WIND    PRES   REMARKS
#BULLFROG 2SW   N/A         36  36  100 CALM    27.48R
#BUMPING DAM    N/A         32  N/A N/A N1      N/A
#CLE ELUM HS    N/A         36  33  89  CALM    29.84S
#CLE ELUM 2NW   N/A         34  34  100 SE1     N/A
#CLE ELUM LAKE  N/A         33  32  96  CALM    29.93S
#CLIFFDEL 2NW   N/A         33  32  96  CALM    N/A
#GLENWOOD       N/A         36  35  96  CALM    29.94R
#MANASTASH CYN  N/A         32  29  89  CALM    29.84S
#NELSON         N/A         35  34  96  CALM    29.96R
#NELSON 3SW     N/A         32  31  96  CALM    30.14S
#NILE           N/A         34  33  96  CALM    29.19R
#RONALD 2NW     N/A         33  31  92  CALM    29.74R
#TEANAWAY 4NE   N/A         34  34  100 CALM    N/A
#TROUT LAKE HS  N/A         38  37  96  NE1     N/A
#TROUT LAKE 1NE N/A         36  35  96  CALM    29.95R
$$

WAZ521-180010-
SIMCOE HIGHLANDS

CITY            SKY/WX      TMP DP  RH  WIND    PRES   REMARKS
#CENTERVILLE 4W N/A         37  36  96  S2      29.65R
#CENTERVILLE 1SWN/A         35  33  92  CALM    29.92R
#GOLDENDALE     N/A         36  36  100 CALM    N/A
#GOLDENDALE 1NE N/A         37  37  100 CALM    N/A
#GOLDENDALE 1S  N/A         36  35  96  CALM    29.87R
#GOLDENDALE 5WNWN/A         36  35  96  CALM    29.94R
#GOODNOE HILLS  N/A         38  35  89  S2      N/A
#LYLE 6NE       N/A         35  34  96  CALM    29.93R
$$

WAZ026-180010-
KITTITAS VALLEY

CITY            SKY/WX      TMP DP  RH  WIND    PRES   REMARKS
ELLENSBURG AP   CLOUDY      37  33  85  CALM    29.89S FOG
#ELLENSBURG CWU N/A         35  34  96  N1      29.91R
#ELLENSBURG 3NE N/A         34  33  96  CALM    29.90R
#ELLENSBURG     N/A         38  38  100 CALM    N/A
#KITTITAS 4N    N/A         37  33  85  CALM    29.95R
#KITTITAS 3S    N/A         34  33  96  CALM    29.95R
#THORP 6N       N/A         33  32  96  CALM    29.97R
$$

WAZ027-180010-
YAKIMA VALLEY

CITY            SKY/WX      TMP DP  RH  WIND    PRES   REMARKS
YAKIMA AIRPORT  CLOUDY      43  35  73  CALM    29.92R
YAKIMA-VAGABOND CLOUDY      39  36  89  SW2     29.91R
#DONALD 2NE     N/A         44  36  73  CALM    28.77R
#GRANDVIEW      N/A         41  36  82  CALM    29.97R
#NACHES 2SW     N/A         38  36  92  E1      29.88F
#OUTLOOK DOT    N/A         N/A N/A N/A CALM    N/A
#SELAH 8E       N/A         36  35  96  W2      N/A
#TERRACE HTS    N/A         40  37  89  CALM    29.92R
#WAPATO 4NE     N/A         44  36  73  CALM    28.77R
#WEST VALLEY    N/A         41  36  82  CALM    29.93R
#W YAKIMA       N/A         40  36  85  CALM    29.94R
#WHITE SWAN 5E  N/A         42  37  82  CALM    29.95R
#WILEY CITY 3W  N/A         39  30  70  CALM    29.92R
$$

WAZ028-180010-
LOWER COLUMBIA BASIN...WASHINGTON

CITY            SKY/WX      TMP DP  RH  WIND    PRES   REMARKS
PASCO           CLOUDY      40  37  89  CALM    29.95S
PROSSER AWOS    N/A         43  39  86  E1      29.96R
RICHLAND AWOS   CLOUDY      41  37  86  CALM    29.95R
#BASIN CITY 5SW N/A         41  38  89  CALM    29.93S
#BENTON CITY    N/A         41  37  86  CALM    29.86S
#CONNELL 5N     N/A         38  37  96  CALM    29.95S
#CONNELL 5NW    N/A         38  37  96  NW1     29.92S
#ELTOPIA        N/A         39  38  96  CALM    29.92S
#ELTOPIA 6NW    N/A         39  37  92  N1      28.89S
#KAHLOTUS       N/A         35  34  96  W2      29.97R
#KENNEWICK      N/A         36  36  100 CALM    27.48R
#KENNEWICK 3S   N/A         40  38  92  CALM    29.96S
#PASCO-BROADMOORN/A         42  38  86  CALM    29.86S
#PATERSON       N/A         40  37  89  CALM    29.93S
#PROSSER        N/A         41  36  82  CALM    29.95S
#SAGEMOOR 2W    N/A         39  37  92  CALM    29.80S
#TOUCHET 2S     N/A         37  36  96  CALM    29.95S
#WEST PASCO     N/A         42  38  86  CALM    29.96S
$$

WAZ029-180010-
FOOTHILLS OF THE BLUES...WASHINGTON

CITY            SKY/WX      TMP DP  RH  WIND    PRES   REMARKS
WALLA WALLA AP  CLOUDY      37  34  89  W7      29.92R
#COLLEGE PLACE  N/A         41  29  62  CALM    29.95R
#DAYTON SCHOOL  N/A         35  29  78  CALM    29.91S
#LOWDEN 2SE     N/A         38  36  92  CALM    29.91R
#PLEASANT VIEW 1N/A         35  34  96  CALM    30.00S
#PRESCOTT       N/A         36  35  96  CALM    29.96S
#SUDBURY        N/A         40  N/A N/A CALM    N/A
#WHITMAN COLLEGEN/A         36  35  96  NE3     30.01R
#WAITSBURG 5S   N/A         34  33  96  N2      30.05S
#WALLA WALLA 5E N/A         36  35  96  S6      N/A
#WALLA WALLA U  N/A         38  36  92  CALM    29.96S
#WHITMAN MISSIONN/A         38  37  96  CALM    29.97S
$$

WAZ030-180010-
BLUE MOUNTAINS...WASHINGTON

CITY            SKY/WX      TMP DP  RH  WIND    PRES   REMARKS
#DIXIE 5SE      N/A         44  28  53  SE6     29.78F
#SKI BLUEWOOD   N/A         35  30  82  S2      29.95S
$$

ORZ009-041-WAZ024-180010-
COLUMBIA RIVER GORGE

CITY            SKY/WX      TMP DP  RH  WIND    PRES   REMARKS
HOOD RIVER AP   CLOUDY      39  37  92  CALM    29.94R
THE DALLES AP   CLOUDY      42  38  86  CALM    29.95R
#ARLINGTON AIRPON/A         39  37  92  CALM    30.01S
#CELILO DOT     N/A         42  36  79  CALM    N/A
#LYLE           N/A         41  39  93  CALM    29.97R
#MARYHILL 2W    N/A         40  40  100 CALM    N/A
#MOSIER 1S      N/A         39  38  96  CALM    29.94S
#MURDOCK        N/A         42  41  96  CALM    29.98R
#RUFUS DOT      N/A         42  35  76  CALM    N/A

$$

ORZ510-180010-
NORTH CENTRAL OREGON

CITY            SKY/WX      TMP DP  RH  WIND    PRES   REMARKS
#CHENOWITH 1W   N/A         35  35  100 SE3     N/A
#COW CYN RST AREN/A         33  33  100 SW1     N/A
#DUFUR 9E       N/A         32  32  100 CALM    30.01R
#GRASS VALLEY   N/A         32  32  100 CALM    N/A
#GRASS VALLEY 1SN/A         33  32  96  CALM    29.98R
#KENT DOT       N/A         33  30  89  CALM    N/A
#MAUPIN SCHOOL  N/A         40  34  79  CALM    28.81R
#MORO SCHOOL    N/A         35  35  100 CALM    29.91R
#SHANIKO 5WSW   N/A         32  29  89  N3      N/A
#SHANIKO 4NW    N/A         32  32  100 E1      29.82R
#TYGH VALLEY 2NEN/A         38  34  85  CALM    29.95R
#WAPANITIA AIRPON/A         35  33  92  CALM    29.97R
#WASCO DOT      N/A         39  36  89  SE6     N/A
#WASCO AIRPORT  N/A         37  35  92  E3      N/A
#WASCO 5NE      N/A         36  35  96  CALM    29.96R
$$

ORZ511-180010-
CENTRAL OREGON

CITY            SKY/WX      TMP DP  RH  WIND    PRES   REMARKS
BEND AIRPORT    CLOUDY      41  36  82  W5      29.86R
MADRAS AIRPORT  LGT RAIN    36  34  92  MISG    29.88R
PRINEVILLE AP   CLOUDY      36  36  100 W7      29.86R
REDMOND AIRPORT LGT RAIN    35  33  92  VRB3    29.85R
#BEND 1SW       N/A         37  36  96  S1      N/A
#BEND-AWBREY    N/A         40  37  89  SW5     29.94R
#BEND-KIM LN    N/A         40  36  85  SW6     29.81R
#CROOKED RVR RANN/A         36  34  92  S28     29.95R WCI 23
#CULVER         N/A         34  32  92  CALM    29.83R
#LAKE BILLY CHINN/A         37  34  89  SE3     29.99R
#POWELL BUTTE 3EN/A         39  37  92  W5      N/A
#POWELL BUTTE   N/A         36  33  89  W2      29.50R
#PRINEVILLE 3N  N/A         37  35  92  SW2     29.90R
#WARM SPRINGS   N/A         39  35  85  CALM    29.88R


ORZ509-180010-
EAST SLOPES OF OREGON CASCADES

CITY            SKY/WX      TMP DP  RH  WIND    PRES   REMARKS
#BLUE BOX PASS  N/A         31  -17 11  CALM    N/A
#BLACK BUTTE RNCN/A         35  34  96  CALM    29.96R
#CAMP SHERMAN   N/A         35  32  89  CALM    29.93R
#LA PINE DOT    N/A         39  34  82  S6      N/A
#LA PINE 4NW    N/A         38  33  82  CALM    29.96R
#LAVA BUTTE DOT N/A         35  33  92  CALM    N/A
#MT BACHELOR-MIDN/A         27  25  92  E18G29  N/A    WCI 14
#SISTERS AIRPOR N/A         35  35  100 N1      30.17S
#SISTERS ODOT   N/A         35  N/A N/A CALM    N/A
#SISTERS 1NW    N/A         35  32  89  E3      N/A
#SISTERS 3N     N/A         34  30  85  CALM    29.90R
#SUNRIVER       N/A         38  36  92  S1      29.82R
#TUMALO 3W      N/A         33  32  96  CALM    29.84R
#WANOGA BUTTE D N/A         31  30  96  W6      N/A

$$

ORZ044-180010-
LOWER COLUMBIA BASIN...OREGON

CITY            SKY/WX      TMP DP  RH  WIND    PRES   REMARKS
HERMISTON       CLOUDY      40  36  85  SE5     29.93S FOG
#BOARDMAN 3W    N/A         43  39  86  CALM    29.68S
#BOARDMAN 8SW   N/A         40  38  92  CALM    29.95R
#ECHO 8SW       N/A         40  37  89  CALM    29.90F
#IONE SCHOOL    N/A         39  27  62  CALM    29.91R
#IRRIGON 4NW    N/A         42  40  93  S2      N/A
#UMATILLA SCHOOLN/A         39  39  100 CALM    29.96F
#UMATILLA       N/A         42  36  79  CALM    29.91S
$$

ORZ507-180010-
NORTHERN FOOTHILLS OF THE BLUES

CITY            SKY/WX      TMP DP  RH  WIND    PRES   REMARKS
PENDLETON AIRPT FOG         36  35  96  NW7     29.90R VSB 1/4
#ADAMS 3WNW     N/A         36  35  96  CALM    29.95R
#ATHENA         N/A         35  35  100 CALM    29.98R
#CAYUSE         N/A         36  35  96  SW2     29.96R
#HELIX SCHOOL   N/A         35  34  96  N2      29.95R
#HELIX 3N       N/A         34  33  96  NW5     29.86R
#HOLDMAN 5SE    N/A         37  36  96  CALM    29.91S
#HOLDMAN 6E     N/A         34  33  96  SE2     29.76S
#M-F FERNDALE   N/A         37  36  96  CALM    29.93R
#M-F GROVE ELEM N/A         36  34  92  CALM    29.90S
#M-FREEWATER 5SEN/A         35  34  96  CALM    29.91R
#PENDLETON DNTN N/A         39  37  92  CALM    28.73R
#PDT AQUATIC CTRN/A         39  37  92  CALM    29.88S
#PENDLETON 5NE  N/A         37  36  96  CALM    29.87R
#PDT SUNRIDGE   N/A         37  35  92  CALM    29.92R
#PENDLETON 7NW  N/A         37  34  89  CALM    N/A
#PILOT ROCK     N/A         35  29  78  NE1     29.91S
#TUTUILLA       N/A         37  35  92  S1      29.94R
#UMAPINE 2E     N/A         38  37  96  CALM    29.91R
#WESTON SCHOOL  N/A         34  32  92  CALM    29.88R

$$

ORZ508-180010-
SOUTHERN FOOTHILLS OF THE BLUES

CITY            SKY/WX      TMP DP  RH  WIND    PRES   REMARKS
LEXINGTON       CLOUDY      37  36  96  CALM    29.91S
#AJAX           N/A         33  28  82  CALM    29.83R
#CONDON 5W      N/A         32  31  96  CALM    29.81S
#FOSSIL SCHOOL  N/A         33  32  96  CALM    29.83S
#HEPPNER EOC    N/A         35  33  92  CALM    29.91S
#HEPPNER 4NE    N/A         33  32  96  CALM    29.96S
#LEXINGTON 2SE  N/A         38  34  85  CALM    29.86S
#MIKKALO        N/A         37  35  92  CALM    29.91R
#OLEX 4N        N/A         37  36  96  CALM    29.91R
#RUGGS 5NE      N/A         34  29  82  CALM    29.98S
#RUGGS 2SW      N/A         31  30  96  CALM    29.98S

$$

ORZ502-503-180010-
BLUE MOUNTAINS

CITY            SKY/WX      TMP DP  RH  WIND    PRES   REMARKS
MEACHAM         CLOUDY      38  32  79  VRB3    29.84F
#BATTLE MTN DOT N/A         37  34  89  S8      N/A
#HARDMAN 10S    N/A         37  33  85  SE6     30.05R
#HEPPNER 15SE   N/A         38  32  79  CALM    29.72S
#LADD CYN SMT   N/A         37  27  67  SE6     N/A
#LADD CREEK ODOTN/A         40  31  70  SW7     N/A
#LONG CREEK HS  N/A         39  35  85  CALM    29.80R
#N POWDER DOT   N/A         40  30  67  S10     N/A
#PIKES PEAK     N/A         42  30  62  S15     27.99S WCI 34
#TOLLGATE       N/A         31  29  92  SW2     29.80F
#TROY SCHOOL    N/A         38  36  92  W1      29.85S
#UKIAH          N/A         40  36  85  SE2     30.01F
#WESTON 4E      N/A         40  32  73  SE12    29.85S WCI 33
$$

ORZ505-180010-
JOHN DAY BASIN

CITY            SKY/WX      TMP DP  RH  WIND    PRES   REMARKS
JOHN DAY        CLOUDY      43  32  65  S17G24  29.86F WCI 35
#JOHN DAY KJDY  N/A         46  41  83  E8      29.91F
#DAYVILLE SCHOOLN/A         32  29  89  CALM    30.16S
#MONUMENT HS    N/A         46  35  65  E1      29.87S
#MT. VERNON 5SE N/A         39  32  76  E2      29.81S
#WINLOCK        N/A         44  33  65  N3      29.93R
$$

ORZ506-180010-
OCHOCO AND JOHN DAY HIGHLANDS

CITY            SKY/WX      TMP DP  RH  WIND    PRES   REMARKS
#BUCK CREEK DOT N/A         42  40  93  SE6     N/A
#HORSE RIDGE DO N/A         40  33  76  S12     N/A    WCI 33
#KEYES SMT DOT  N/A         40  31  70  CALM    N/A
#PAULINA SCHOOL N/A         44  34  68  CALM    29.86S
#PRAIRIE CITY   N/A         43  29  57  NE3     29.93S
#SENECA         N/A         38  N/A N/A W1      N/A
#SENECA 9NW     N/A         35  32  89  CALM    29.96S
$$

ORZ049-180010-
GRANDE RONDE VALLEY

CITY            SKY/WX      TMP DP  RH  WIND    PRES   REMARKS
LA GRANDE       MOCLDY      43  28  55  S14     29.89S WCI 36
#COVE           N/A         43  37  79  S6      30.03S
#COVE SCHOOL    N/A         43  34  70  W2      29.88R
#COVE 6NW       N/A         41  33  73  S3      30.00R
#ELGIN 3N       N/A         41  30  65  CALM    29.64R
#ELGIN 1E       N/A         42  35  76  CALM    N/A
#IMBLER SCHOOL  N/A         40  33  76  S2      29.87S
#ISLAND CITY 4N N/A         46  42  86  CALM    29.85R
#LADD CYN DOT   N/A         41  30  65  S23G30  N/A    WCI 31
#UNION 1S       N/A         43  35  73  S8      29.88S
$$

ORZ050-180010-
WALLOWA COUNTY

CITY            SKY/WX      TMP DP  RH  WIND    PRES   REMARKS
JOSEPH AIRPORT  CLOUDY      34  30  85  CALM    29.91R
#ENTERPRISE AP  N/A         31  29  92  CALM    29.85R
#ENTERPRISE HS  N/A         33  30  89  CALM    29.93R
#IMNAHA SCHOOL  N/A         42  35  76  VRB2    29.91R
#IMNAHA 10S     N/A         45  32  60  SW7     29.92R
#JOSEPH 3N      N/A         31  29  92  CALM    29.93R
#JOSEPH 3W      N/A         33  28  82  CALM    29.75R
#LOSTINE        N/A         32  28  85  CALM    29.84R
#MT HOWARD 8000 N/A         24  20  84  S6      29.83R
#PROMISE 1S     N/A         35  32  89  CALM    30.09S
#SHEEP RDG 7000 N/A         29  23  78  CALM    29.98R
#WALLOWA SCHOOL N/A         33  29  85  CALM    31.00R



$$



USA.gov is the U.S. government's official web portal to all federal, state and local government web resources and services.